"2010-11-11 00:00:00",325741,4.704,24.25,6.427,1.156,4.772,100.3115,0.095,1.25,68.34,0,109.6,13.54,0.85,346.2
"2010-11-11 00:00:30",325742,4.579,25.84,5.771,1.179,5.018,100.3002,0.066,1.205,68.18,0,109.6,13.54,0.82,347.8
"2010-11-11 00:01:00",325743,4.715,26.3,5.683,1.064,4.954,100.2996,0.064,1.213,68.37,0,109.6,13.54,0.82,348.3
"2010-11-11 00:01:30",325744,4.288,22.16,6.112,1.237,2.624,100.3028,0.072,0.982,68.09,0,109.6,13.54,0.82,344.2
"2010-11-11 00:02:00",325745,3.431,19.43,5.798,1.085,3.167,100.3047,0.077,1.17,68.26,0,109.6,13.54,0.83,341.4
"2010-11-11 00:02:30",325746,4.606,25.16,5.756,1.108,4.923,100.3056,0.08,1.196,68.06,0,109.6,13.54,0.83,347.2
"2010-11-11 00:03:00",325747,4.821,25.81,6.11,1.02,5.237,100.3053,0.079,1.184,67.77,0,109.6,13.54,0.83,347.8
"2010-11-11 00:03:30",325748,4.527,23.5,7.199,1.277,4.552,100.3056,0.08,1.152,67.79,0,109.6,13.54,0.83,345.5
"2010-11-11 00:04:00",325749,4.767,24.3,6.647,1.271,4.86,100.3056,0.08,1.182,67.78,0,109.6,13.54,0.83,346.3
"2010-11-11 00:04:30",325750,4.171,17.17,6.102,1.254,3.65,100.3056,0.08,1.08,67.61,0,109.6,13.54,0.83,339.2
"2010-11-11 00:05:00",325751,5.294,25.51,6.078,1.22,4.783,100.3056,0.08,1.158,67.7,0,109.6,13.54,0.83,347.5
"2010-11-11 00:05:30",325752,4.326,21.13,6.764,1.292,4.092,100.3056,0.08,1.177,67.75,0,109.6,13.54,0.83,343.1
"2010-11-11 00:06:00",325753,4.755,24.27,5.53,1.057,4.483,100.3056,0.08,1.142,67.51,0,109.6,13.55,0.83,346.3
"2010-11-11 00:06:30",325754,4.479,21.18,6.124,1.265,4.863,100.3056,0.08,1.186,67.43,0,109.6,13.55,0.83,343.2
"2010-11-11 00:07:00",325755,4.659,21.69,6.035,1.176,4.838,100.3056,0.08,1.192,67.63,0,109.6,13.55,0.83,343.7
"2010-11-11 00:07:30",325756,3.61,18.49,5.756,0.98,2.47,100.3056,0.08,1.078,67.39,0,109.6,13.55,0.83,340.5
"2010-11-11 00:08:00",325757,5.295,26.75,5.739,0.944,4.847,100.3056,0.08,1.193,67.6,0,109.5,13.55,0.83,348.8
"2010-11-11 00:08:30",325758,4.824,23.2,6.234,1.07,4.788,100.3056,0.08,1.149,67.38,0,109.5,13.55,0.83,345.2
"2010-11-11 00:09:00",325759,4.774,23.71,6.835,1.333,5.299,100.3059,0.08,1.212,66.13,0,109.5,13.54,0.83,345.7
"2010-11-11 00:09:30",325760,4.686,22.34,5.525,1.034,5.406,100.3073,0.084,1.201,65.8,0,109.6,13.54,0.84,344.3
"2010-11-11 00:10:00",325761,4.671,21.45,6.822,1.279,3.829,100.3084,0.087,1.078,66.23,0,109.6,13.54,0.84,343.5
"2010-11-11 00:10:30",325762,4.009,19.5,6.857,1.197,3.343,100.3113,0.094,1.18,66.53,0,109.6,13.54,0.85,341.5
"2010-11-11 00:11:00",325763,5.029,23.32,6.56,1.135,4.872,100.3161,0.106,1.187,66.89,0,109.6,13.54,0.86,345.3
"2010-11-11 00:11:30",325764,5.026,24.79,6.582,1.24,4.591,100.3209,0.119,1.266,66.98,0,109.6,13.55,0.87,346.8
"2010-11-11 00:12:00",325765,4.671,23.1,6.019,1.124,4.679,100.3255,0.13,1.2,67.36,0,109.6,13.55,0.88,345.1
"2010-11-11 00:12:30",325766,4.584,20.74,6.564,1.123,5.111,100.3266,0.133,1.219,67.23,0,109.6,13.55,0.89,342.7
"2010-11-11 00:13:00",325767,5.087,24.39,6.107,1.151,4.613,100.3277,0.136,1.126,66.3,0,109.6,13.55,0.89,346.4
"2010-11-11 00:13:30",325768,4.489,20.65,7.075,1.237,4.203,100.3292,0.14,1.164,65.22,0,109.5,13.55,0.89,342.6
"2010-11-11 00:14:00",325769,4.805,22.75,5.496,1.16,4.872,100.3312,0.145,1.216,64.96,0,109.6,13.55,0.90,344.8
"2010-11-11 00:14:30",325770,4.562,21.7,5.703,1.005,5.144,100.3317,0.146,1.204,64.61,0,109.5,13.55,0.90,343.7
"2010-11-11 00:15:00",325771,3.989,13.39,7.572,1.187,4.304,100.3329,0.149,1.226,63.78,0,109.6,13.56,0.90,335.4
"2010-11-11 00:15:30",325772,4.543,17.87,4.563,1.05,5.128,100.3334,0.151,1.189,62.86,0,109.6,13.56,0.90,339.9
"2010-11-11 00:16:00",325773,3.947,13.68,6.25,1.281,3.423,100.3266,0.133,1.118,62.42,0,109.6,13.56,0.89,335.7
"2010-11-11 00:16:30",325774,4.015,15.9,7.699,1.332,3.81,100.3213,0.12,1.165,62.75,0,109.6,13.56,0.87,337.9
"2010-11-11 00:17:00",325775,4.465,17.82,6.83,1.125,4.7,100.3204,0.117,1.228,62.97,0,109.6,13.56,0.87,339.8
"2010-11-11 00:17:30",325776,4.647,17.03,5.681,1.129,4.921,100.3187,0.113,1.151,63.55,0,109.6,13.56,0.87,339.0
"2010-11-11 00:18:00",325777,3.947,11.69,6.84,1.295,3.92,100.3176,0.11,1.199,63.51,0,109.6,13.56,0.86,333.7
"2010-11-11 00:18:30",325778,3.587,13.93,8.73,1.274,3.73,100.3176,0.11,1.137,63.66,0,109.6,13.56,0.86,335.9
"2010-11-11 00:19:00",325779,4.252,14.74,6.239,1.225,4.511,100.3176,0.11,1.132,63.48,0,109.6,13.56,0.86,336.7
"2010-11-11 00:19:30",325780,3.329,6.495,5.391,0.941,2.533,100.3131,0.099,1.096,63.44,0,109.6,13.56,0.85,328.5
"2010-11-11 00:20:00",325781,4.488,7.989,7.245,1.231,4.042,100.3153,0.104,1.154,63.85,0,109.6,13.56,0.86,330.0
"2010-11-11 00:20:30",325782,4.796,6.613,6.448,1.1,4.785,100.3119,0.096,1.22,63.84,0,109.5,13.56,0.85,328.6
"2010-11-11 00:21:00",325783,5.065,7.798,5.978,1.154,5.193,100.3094,0.089,1.189,64.03,0,109.5,13.56,0.84,329.8
"2010-11-11 00:21:30",325784,4.076,4.945,6.567,1.276,3.624,100.3065,0.082,1.117,63.89,0,109.5,13.56,0.83,326.9
"2010-11-11 00:22:00",325785,4.364,4.865,6.67,1.239,4.054,100.306,0.081,1.143,63.7,0,109.5,13.56,0.83,326.9
"2010-11-11 00:22:30",325786,4.358,2.141,5.784,1.402,3.866,100.3057,0.08,1.131,63.26,0,109.6,13.56,0.83,324.1
"2010-11-11 00:23:00",325787,4.7,3.268,5.977,1.293,4.038,100.3057,0.08,1.178,62.63,0,109.5,13.57,0.83,325.3
"2010-11-11 00:23:30",325788,4.496,6.48,6.203,1.27,4.632,100.3125,0.097,1.2,63.17,0,109.5,13.57,0.85,328.5
"2010-11-11 00:24:00",325789,4.225,6.545,7.043,1.235,4.073,100.3187,0.113,1.198,63.2,0,109.5,13.57,0.87,328.5
"2010-11-11 00:24:30",325790,4.435,6.664,6.597,1.151,4.678,100.3227,0.123,1.231,62.1,0,109.5,13.57,0.88,328.7
"2010-11-11 00:25:00",325791,3.76,3.92,6.562,1.121,3.536,100.3252,0.13,1.134,61.1,0,109.5,13.57,0.88,325.9
"2010-11-11 00:25:30",325792,3.886,1.673,6.595,1.179,3.603,100.3292,0.14,1.244,60.81,0,109.5,13.56,0.89,323.7
"2010-11-11 00:26:00",325793,4.288,6.062,6,1.293,4.188,100.3351,0.155,1.221,60.6,0,109.5,13.56,0.91,328.1
"2010-11-11 00:26:30",325794,4.41,8.3,5.561,1.172,5.034,100.3371,0.16,1.208,60.56,0,109.5,13.56,0.91,330.3
"2010-11-11 00:27:00",325795,4.016,5.613,6.721,1.308,3.651,100.3315,0.146,1.122,59.95,0,109.5,13.56,0.90,327.6
"2010-11-11 00:27:30",325796,4.609,8.68,6.281,1.126,4.982,100.3235,0.125,1.244,60.43,0,109.5,13.56,0.88,330.7
"2010-11-11 00:28:00",325797,4.689,9.29,6.348,1.102,4.957,100.3153,0.104,1.188,60.75,0,109.5,13.56,0.86,331.3
"2010-11-11 00:28:30",325798,4.089,4.874,6.738,1.263,3.177,100.306,0.081,1.042,60.58,0,109.5,13.56,0.83,326.9
"2010-11-11 00:29:00",325799,4.235,5.976,6.97,1.257,3.95,100.3063,0.081,1.205,60.6,0,109.5,13.56,0.83,328.0
"2010-11-11 00:29:30",325800,4.316,7.227,6.055,1.239,4.362,100.3057,0.08,1.207,60.57,0,109.5,13.56,0.83,329.2
"2010-11-11 00:30:00",325801,4.721,7.083,5.496,1.123,5.013,100.3074,0.084,1.198,60.34,0,109.5,13.56,0.84,329.1
"2010-11-11 00:30:30",325802,4.35,6.027,6.526,1.258,4.163,100.3088,0.088,1.188,59.76,0,109.5,13.57,0.84,328.0
"2010-11-11 00:31:00",325803,4.631,7.084,6.075,1.215,4.704,100.3077,0.085,1.142,59.68,0,109.5,13.57,0.84,329.1
"2010-11-11 00:31:30",325804,3.325,1.328,5.57,1,2.355,100.3139,0.101,1.09,59.73,0,109.5,13.57,0.85,323.3
"2010-11-11 00:32:00",325805,4.647,9.14,5.887,1.05,4.837,100.3142,0.102,1.189,59.97,0,109.5,13.57,0.85,331.1
"2010-11-11 00:32:30",325806,4.023,6.404,6.739,1.223,3.325,100.3148,0.103,1.132,59.84,0,109.5,13.57,0.86,328.4
"2010-11-11 00:33:00",325807,4.512,7.546,6.898,1.194,4.258,100.3145,0.102,1.201,59.76,0,109.5,13.57,0.85,329.5
"2010-11-11 00:33:30",325808,4.689,7.847,6.236,1.203,5.222,100.3156,0.105,1.239,59.75,0,109.5,13.57,0.86,329.8
"2010-11-11 00:34:00",325809,4.416,7.046,5.733,1.212,4.524,100.3165,0.107,1.195,59.78,0,109.5,13.57,0.86,329.0
"2010-11-11 00:34:30",325810,3.641,4.15,6.3,1.124,2.971,100.3179,0.111,1.102,59.67,0,109.5,13.57,0.86,326.1
"2010-11-11 00:35:00",325811,4.413,9.55,6.245,1.219,4.16,100.3202,0.117,1.197,59.81,0,109.5,13.57,0.87,331.5
"2010-11-11 00:35:30",325812,4.061,9.06,7.063,1.215,3.773,100.3225,0.123,1.088,59.96,0,109.5,13.58,0.88,331.1
"2010-11-11 00:36:00",325813,4.524,9.29,6.5,1.062,4.739,100.3242,0.127,1.229,60.29,0,109.5,13.58,0.88,331.3
"2010-11-11 00:36:30",325814,4.406,9.51,6.184,1.233,4.606,100.3239,0.126,1.213,60.24,0,109.5,13.58,0.88,331.5
"2010-11-11 00:37:00",325815,4.8,9.65,5.648,1.059,5.173,100.3239,0.126,1.2,60.25,0,109.5,13.58,0.88,331.6
"2010-11-11 00:37:30",325816,3.894,6.001,5.2,1.215,2.907,100.3242,0.127,1.017,60.16,0,109.5,13.58,0.88,328.0
"2010-11-11 00:38:00",325817,4.106,4.945,7.553,1.332,3.386,100.3267,0.133,1.134,60.39,0,109.5,13.58,0.89,326.9
"2010-11-11 00:38:30",325818,4.684,8.29,6.455,1.218,4.425,100.3273,0.135,1.142,60.51,0,109.5,13.58,0.89,330.3
"2010-11-11 00:39:00",325819,4.607,7.486,5.896,1.227,4.444,100.3284,0.138,1.211,60.52,0,109.5,13.58,0.89,329.5
"2010-11-11 00:39:30",325820,4.464,6.768,6.885,1.224,4.468,100.3304,0.143,1.175,60.43,0,109.5,13.58,0.90,328.8
"2010-11-11 00:40:00",325821,4.895,8.51,6.367,1.008,5.024,100.3298,0.141,1.213,60.41,0,109.5,13.58,0.89,330.5
"2010-11-11 00:40:30",325822,3.523,2.205,4.236,1.077,2.152,100.3293,0.14,1.05,60.35,0,109.5,13.58,0.89,324.2
"2010-11-11 00:41:00",325823,4.994,12.47,5.567,1.017,5.163,100.3301,0.142,1.202,60.66,0,109.5,13.58,0.89,334.5
"2010-11-11 00:41:30",325824,4.437,14.89,6.469,1.19,4.242,100.3304,0.143,1.19,60.88,0,109.5,13.58,0.90,336.9
"2010-11-11 00:42:00",325825,4.502,19.95,5.537,1.023,4.951,100.331,0.144,1.224,61.37,0,109.5,13.58,0.90,342.0
"2010-11-11 00:42:30",325826,3.81,15.97,7.106,1.242,3.376,100.3313,0.145,1.151,61.28,0,109.5,13.58,0.90,338.0
"2010-11-11 00:43:00",325827,5.098,25.29,5.891,1.116,4.848,100.3313,0.145,1.22,61.33,0,109.5,13.58,0.90,347.3
"2010-11-11 00:43:30",325828,4.959,24.95,5.811,1.172,4.412,100.3313,0.145,1.218,61.18,0,109.5,13.58,0.90,347.0
"2010-11-11 00:44:00",325829,5.467,27.13,6.26,1.149,4.488,100.3318,0.146,1.194,61.56,0,109.5,13.58,0.90,349.1
"2010-11-11 00:44:30",325830,5.326,26.09,6.498,1.161,4.439,100.3318,0.146,1.248,62.36,0,109.6,13.58,0.90,348.1
"2010-11-11 00:45:00",325831,6.113,28.77,5.014,0.958,5.537,100.333,0.149,1.252,62.8,0,109.5,13.58,0.90,350.8
"2010-11-11 00:45:30",325832,5.618,27.28,5.989,1.155,5.139,100.3392,0.165,1.276,63.25,0,109.5,13.58,0.92,349.3
"2010-11-11 00:46:00",325833,5.794,28.94,6.134,1.094,5.148,100.3497,0.192,1.27,63.74,0,109.5,13.58,0.94,350.9
"2010-11-11 00:46:30",325834,5.589,28.73,6.221,1.198,4.559,100.3502,0.193,1.236,63.86,0,109.5,13.58,0.95,350.7
"2010-11-11 00:47:00",325835,5.343,29.68,6.106,1.231,4.602,100.3542,0.204,1.306,63.99,0,109.5,13.58,0.96,351.7
"2010-11-11 00:47:30",325836,5.462,31.46,6.151,1.125,5.027,100.363,0.226,1.3,64.19,0,109.5,13.58,0.98,353.5
"2010-11-11 00:48:00",325837,4.996,29.97,6.266,1.226,4.381,100.3687,0.24,1.26,64.15,0,109.5,13.58,0.99,352.0
"2010-11-11 00:48:30",325838,5.122,31.76,6.135,1.135,4.966,100.3712,0.247,1.315,64.05,0,109.5,13.58,1.00,353.8
"2010-11-11 00:49:00",325839,5.159,33.22,6.134,1.191,4.961,100.3687,0.24,1.312,63.88,0,109.5,13.58,0.99,355.2
"2010-11-11 00:49:30",325840,5.118,34.02,6.039,1.148,4.793,100.3704,0.245,1.276,63.72,0,109.5,13.58,1.00,356.0
"2010-11-11 00:50:00",325841,5.183,34.43,6.043,1.059,4.873,100.3709,0.246,1.315,63.9,0,109.5,13.58,1.00,356.4
"2010-11-11 00:50:30",325842,5.02,33.71,5.489,1.256,4.796,100.3706,0.245,1.296,63.62,0,109.5,13.58,1.00,355.7
"2010-11-11 00:51:00",325843,5.372,33.76,5.493,1.045,5.194,100.3726,0.251,1.296,63.2,0,109.5,13.59,1.00,355.8
"2010-11-11 00:51:30",325844,5.343,32.86,5.35,1.084,5.183,100.3721,0.249,1.269,63.1,0,109.5,13.59,1.00,354.9
"2010-11-11 00:52:00",325845,5.022,31.71,6.627,1.153,4.989,100.3729,0.251,1.399,63.44,0,109.5,13.59,1.00,353.7
"2010-11-11 00:52:30",325846,5.31,32.85,5.721,1.07,5.186,100.3735,0.253,1.343,62.77,0,109.6,13.59,1.01,354.9
"2010-11-11 00:53:00",325847,5.49,31.74,5.739,0.99,5.019,100.3749,0.256,1.35,62,0,109.5,13.59,1.01,353.7
"2010-11-11 00:53:30",325848,4.465,25.51,6.094,1.164,3.008,100.3772,0.262,1.286,61.53,0,109.5,13.59,1.02,347.5
"2010-11-11 00:54:00",325849,5.204,29.87,5.638,1.222,4.813,100.3769,0.261,1.359,61.29,0,109.5,13.59,1.01,351.9
"2010-11-11 00:54:30",325850,5.312,31.14,6.017,1.19,4.889,100.3834,0.278,1.292,60.7,0,109.5,13.59,1.03,353.1
"2010-11-11 00:55:00",325851,5.194,30.97,6.3,1.212,5.012,100.3888,0.292,1.396,60.05,0,109.5,13.59,1.04,353.0
"2010-11-11 00:55:30",325852,5.911,34.2,4.308,0.686,5.95,100.391,0.297,1.383,59.49,0,109.6,13.59,1.05,356.2
"2010-11-11 00:56:00",325853,4.903,30.6,6.038,1.16,4.214,100.3944,0.306,1.395,59.52,0,109.5,13.59,1.06,352.6
"2010-11-11 00:56:30",325854,5.13,30.02,6.161,1.183,4.047,100.4018,0.325,1.239,59.34,0,109.5,13.59,1.08,352.0
"2010-11-11 00:57:00",325855,4.86,28.14,6.192,1.21,4.328,100.4041,0.331,1.336,59.65,0,109.5,13.59,1.08,350.1
"2010-11-11 00:57:30",325856,5.082,29.47,6.115,1.166,4.618,100.4041,0.331,1.327,59.58,0,109.5,13.59,1.08,351.5
"2010-11-11 00:58:00",325857,5.205,30.5,6.183,1.093,5.238,100.4072,0.339,1.425,60.12,0,109.5,13.58,1.09,352.5
"2010-11-11 00:58:30",325858,5.337,30.94,5.266,1.135,5.03,100.4069,0.338,1.393,59.92,0,109.5,13.58,1.09,352.9
"2010-11-11 00:59:00",325859,5.41,30.65,6.085,1.056,4.765,100.4072,0.339,1.347,60.47,0,109.5,13.58,1.09,352.6
"2010-11-11 00:59:30",325860,4.266,24.44,5.833,1.044,2.776,100.4077,0.34,1.296,60.33,0,109.6,13.58,1.09,346.4
"2010-11-11 01:00:00",325861,5.036,29.46,5.903,1.252,4.667,100.4077,0.34,1.418,60.2,0,109.5,13.58,1.09,351.5
"2010-11-11 01:00:30",325862,5.157,30.85,6.054,1.194,5.137,100.4077,0.34,1.402,60.81,0,109.5,13.58,1.09,352.9
"2010-11-11 01:01:00",325863,5.338,32.45,5.682,1.084,5.263,100.4077,0.34,1.431,59.97,0,109.5,13.58,1.09,354.5
"2010-11-11 01:01:30",325864,5.254,32.51,6.205,1.077,5.133,100.4077,0.34,1.436,59.4,0,109.5,13.58,1.09,354.5
"2010-11-11 01:02:00",325865,5.163,31.54,6.23,1.161,4.312,100.4077,0.34,1.387,59.24,0,109.5,13.58,1.09,353.5
"2010-11-11 01:02:30",325866,4.243,27.01,5.259,1.091,2.791,100.408,0.341,1.312,58.53,0,109.5,13.58,1.09,349.0
"2010-11-11 01:03:00",325867,5.245,34.45,5.384,1.14,5.007,100.4077,0.34,1.401,58.64,0,109.5,13.58,1.09,356.5
"2010-11-11 01:03:30",325868,4.972,33.82,6.322,1.208,5.033,100.4126,0.352,1.426,58.43,0,109.6,13.59,1.11,355.8
"2010-11-11 01:04:00",325869,5.22,34.55,5.79,1.149,5.403,100.4193,0.37,1.482,57.52,0,109.5,13.59,1.12,356.5
"2010-11-11 01:04:30",325870,5.105,34.82,5.775,1.143,4.857,100.4219,0.376,1.401,56.85,0,109.5,13.59,1.13,356.8
"2010-11-11 01:05:00",325871,4.781,32.52,6.267,1.261,4.493,100.4244,0.383,1.458,56.42,0,109.5,13.59,1.14,354.5
"2010-11-11 01:05:30",325872,4.857,33.45,5.941,1.257,4.278,100.4301,0.397,1.351,55.84,0,109.5,13.59,1.15,355.5
"2010-11-11 01:06:00",325873,4.877,34.19,6.142,1.242,4.926,100.4363,0.413,1.431,56.08,0,109.5,13.59,1.17,356.2
"2010-11-11 01:06:30",325874,5.206,35.31,5.998,1.094,5.433,100.4406,0.424,1.463,55.92,0,109.5,13.59,1.18,357.3
"2010-11-11 01:07:00",325875,5.073,35.72,5.725,1.126,5.186,100.4417,0.427,1.526,55.65,0,109.5,13.59,1.18,357.7
"2010-11-11 01:07:30",325876,5.224,34.72,5.287,1.034,5.216,100.4417,0.427,1.463,55.6,0,109.5,13.59,1.18,356.7
"2010-11-11 01:08:00",325877,5.049,32.87,6.071,1.155,4.666,100.4417,0.427,1.438,55.8,0,109.5,13.59,1.18,354.9
"2010-11-11 01:08:30",325878,4.453,31.18,6.609,1.218,3.954,100.4417,0.427,1.417,55.5,0,109.5,13.59,1.18,353.2
"2010-11-11 01:09:00",325879,5.093,34.16,5.763,1.049,5.265,100.4417,0.427,1.465,55.38,0,109.5,13.59,1.18,356.2
"2010-11-11 01:09:30",325880,4.77,32.28,6.216,1.211,5.006,100.4417,0.427,1.517,54.97,0,109.5,13.59,1.18,354.3
"2010-11-11 01:10:00",325881,4.926,32.58,6.402,1.155,4.856,100.4417,0.427,1.52,53.45,0,109.5,13.59,1.18,354.6
"2010-11-11 01:10:30",325882,4.895,35.18,5.929,1.107,4.917,100.4417,0.427,1.469,54.18,0,109.5,13.59,1.18,357.2
"2010-11-11 01:11:00",325883,4.418,32.4,6.017,1.255,4.04,100.4417,0.427,1.494,55.62,0,109.5,13.59,1.18,354.4
"2010-11-11 01:11:30",325884,3.76,30.2,6.01,1.142,3.453,100.4417,0.427,1.452,56.6,0,109.5,13.59,1.18,352.2
"2010-11-11 01:12:00",325885,4.51,32.1,6.232,1.219,4.457,100.4417,0.427,1.485,56.74,0,109.5,13.59,1.18,354.1
"2010-11-11 01:12:30",325886,4.598,36.1,5.664,1.079,5.434,100.4417,0.427,1.497,57.7,0,109.5,13.59,1.18,358.1
"2010-11-11 01:13:00",325887,4.142,35.01,7.064,1.236,3.818,100.4412,0.425,1.373,58.13,0,109.5,13.59,1.18,357.0
"2010-11-11 01:13:30",325888,4.194,37.51,6.673,1.171,4.371,100.4417,0.427,1.523,59.02,0,109.5,13.59,1.18,359.5
"2010-11-11 01:14:00",325889,4.625,39.57,5.936,1.122,4.148,100.4409,0.425,1.49,59.33,0,109.5,13.59,1.18,1.6
"2010-11-11 01:14:30",325890,4.449,37.8,6.182,1.228,3.456,100.4417,0.427,1.499,61.75,0,109.5,13.59,1.18,359.8
"2010-11-11 01:15:00",325891,5.309,42.14,5.664,1.165,4.897,100.4412,0.425,1.46,62.92,0,109.5,13.59,1.18,4.1
"2010-11-11 01:15:30",325892,4.893,40.84,5.867,1.236,4.816,100.4403,0.423,1.437,63.74,0,109.5,13.59,1.18,2.8
"2010-11-11 01:16:00",325893,5.194,41.93,6.112,1.212,5.014,100.4335,0.406,1.554,64.57,0,109.5,13.59,1.16,3.9
"2010-11-11 01:16:30",325894,5.685,43.9,5.929,1.082,5.08,100.4278,0.391,1.466,64.49,0,109.5,13.59,1.14,5.9
"2010-11-11 01:17:00",325895,5.604,43.49,6.116,1.248,4.625,100.427,0.389,1.522,65.01,0,109.5,13.59,1.14,5.5
"2010-11-11 01:17:30",325896,5.826,43.69,6.231,1.17,4.534,100.425,0.384,1.412,65.29,0,109.5,13.59,1.14,5.7
"2010-11-11 01:18:00",325897,6.132,46.03,5.914,1.153,5.249,100.4233,0.38,1.443,65.82,0,109.5,13.59,1.13,8.0
"2010-11-11 01:18:30",325898,5.933,44.65,5.955,1.24,4.756,100.4233,0.38,1.516,66.32,0,109.5,13.59,1.13,6.7
"2010-11-11 01:19:00",325899,6.778,47.58,4.874,0.868,5.91,100.4211,0.374,1.539,67.23,0,109.5,13.59,1.13,9.6
"2010-11-11 01:19:30",325900,5.98,44.62,6.064,1.23,4.584,100.4137,0.355,1.484,67.45,0,109.5,13.59,1.11,6.6
"2010-11-11 01:20:00",325901,6.558,49.09,5.026,1.054,5.758,100.41,0.346,1.512,67.84,0,109.5,13.59,1.10,11.1
"2010-11-11 01:20:30",325902,5.91,45.57,6.358,1.216,4.657,100.4077,0.34,1.474,68.18,0,109.5,13.59,1.09,7.6
"2010-11-11 01:21:00",325903,6.269,48.95,5.744,1.151,5.41,100.4077,0.34,1.425,67.63,0,109.5,13.59,1.09,11.0
"2010-11-11 01:21:30",325904,6.022,47.46,6.341,1.205,5.007,100.4077,0.34,1.472,67.39,0,109.5,13.59,1.09,9.5
"2010-11-11 01:22:00",325905,6.924,52.7,2.777,0.649,6.376,100.408,0.341,1.478,67.71,0,109.5,13.59,1.09,14.7
"2010-11-11 01:22:30",325906,6.561,50.86,5.59,1.098,5.208,100.4092,0.344,1.493,68.19,0,109.5,13.59,1.10,12.9
"2010-11-11 01:23:00",325907,6.502,52.72,5.182,1.133,5.208,100.4077,0.34,1.43,68.5,0,109.5,13.59,1.09,14.7
"2010-11-11 01:23:30",325908,6.389,51.53,5.671,1.154,5.48,100.4077,0.34,1.475,68.62,0,109.5,13.59,1.09,13.5
"2010-11-11 01:24:00",325909,6.239,49.25,5.862,1.174,5.014,100.4077,0.34,1.437,68.7,0,109.5,13.59,1.09,11.2
"2010-11-11 01:24:30",325910,6.325,51.29,5.704,1.179,5.367,100.4077,0.34,1.463,69.01,0,109.5,13.59,1.09,13.3
"2010-11-11 01:25:00",325911,7.144,54.46,4.284,0.371,6.584,100.4077,0.34,1.465,69.18,0,109.5,13.59,1.09,16.5
"2010-11-11 01:25:30",325912,6.151,50.81,6.199,1.214,4.485,100.4077,0.34,1.477,69.01,0,109.5,13.59,1.09,12.8
"2010-11-11 01:26:00",325913,6.738,53.25,5.555,1.013,5.57,100.4077,0.34,1.429,68.97,0,109.5,13.59,1.09,15.2
"2010-11-11 01:26:30",325914,6.822,55.56,5.869,0.964,5.555,100.4077,0.34,1.382,68.74,0,109.5,13.59,1.09,17.6
"2010-11-11 01:27:00",325915,6.673,54.31,5.91,1.147,4.812,100.4077,0.34,1.407,68.59,0,109.5,13.59,1.09,16.3
"2010-11-11 01:27:30",325916,6.785,55.25,5.58,1.117,5.676,100.4077,0.34,1.447,68.62,0,109.5,13.59,1.09,17.2
"2010-11-11 01:28:00",325917,7.222,57.46,2.943,0.763,6.352,100.4077,0.34,1.492,68.83,0,109.5,13.59,1.09,19.5
"2010-11-11 01:28:30",325918,7.395,58.25,3.232,0.692,6.513,100.4077,0.34,1.485,69.04,0,109.5,13.59,1.09,20.2
"2010-11-11 01:29:00",325919,6.734,55.15,6.111,1.205,5.178,100.4077,0.34,1.406,69.29,0,109.5,13.59,1.09,17.2
"2010-11-11 01:29:30",325920,6.943,58.49,4.689,1.093,6.109,100.4077,0.34,1.512,69.63,0,109.5,13.59,1.09,20.5
"2010-11-11 01:30:00",325921,6.872,56.34,5.654,1.094,5.803,100.4077,0.34,1.444,69.78,0,109.5,13.59,1.09,18.3
"2010-11-11 01:30:30",325922,6.972,57.13,5.311,1.07,5.979,100.4077,0.34,1.449,70.01,0,109.5,13.59,1.09,19.1
"2010-11-11 01:31:00",325923,7.344,57.97,2.937,0.847,6.434,100.4077,0.34,1.473,70.05,0,109.5,13.59,1.09,20.0
"2010-11-11 01:31:30",325924,7.129,57.15,5.067,1.073,5.862,100.4077,0.34,1.509,70.13,0,109.5,13.59,1.09,19.2
"2010-11-11 01:32:00",325925,7.225,56.17,5.013,1.038,5.75,100.4077,0.34,1.381,69.88,0,109.5,13.59,1.09,18.2
"2010-11-11 01:32:30",325926,6.952,54.46,6.059,1.145,5.883,100.4077,0.34,1.478,70.23,0,109.5,13.59,1.09,16.5
"2010-11-11 01:33:00",325927,7.244,54.92,6.02,0.999,6.39,100.4077,0.34,1.443,70.2,0,109.5,13.59,1.09,16.9
"2010-11-11 01:33:30",325928,7.141,54.38,5.154,1.038,6.069,100.4077,0.34,1.443,70.14,0,109.5,13.59,1.09,16.4
"2010-11-11 01:34:00",325929,7.225,54.27,5.405,0.914,6.229,100.4077,0.34,1.43,69.71,0,109.5,13.59,1.09,16.3
"2010-11-11 01:34:30",325930,7.416,56.97,2.905,0.672,6.079,100.4077,0.34,1.48,69,0,109.5,13.58,1.09,19.0
"2010-11-11 01:35:00",325931,6.871,55.37,5.56,1.158,5.673,100.4077,0.34,1.431,67.98,0,109.5,13.58,1.09,17.4
"2010-11-11 01:35:30",325932,6.943,55.76,5.89,1.026,5.481,100.4077,0.34,1.457,67.5,0,109.5,13.59,1.09,17.8
"2010-11-11 01:36:00",325933,6.617,55.76,6.165,1.184,5.526,100.408,0.341,1.446,66.48,0,109.6,13.59,1.09,17.8
"2010-11-11 01:36:30",325934,6.949,57.23,5.671,1.058,6.164,100.412,0.351,1.493,66.26,0,109.5,13.59,1.10,19.2
"2010-11-11 01:37:00",325935,6.411,55.26,6.212,1.172,5.116,100.4191,0.369,1.447,66.02,0,109.5,13.59,1.12,17.3
"2010-11-11 01:37:30",325936,7.401,61.71,1.177,0.737,6.664,100.4228,0.378,1.543,66.23,0,109.5,13.59,1.13,23.7
"2010-11-11 01:38:00",325937,6.866,58.58,5.666,1.139,5.961,100.4239,0.381,1.454,66.39,0,109.5,13.59,1.13,20.6
"2010-11-11 01:38:30",325938,7.054,58.8,5.595,0.987,5.943,100.4256,0.386,1.505,66.59,0,109.5,13.59,1.14,20.8
"2010-11-11 01:39:00",325939,7.124,59.56,5.017,0.942,6.29,100.4259,0.386,1.494,66.87,0,109.5,13.59,1.14,21.6
"2010-11-11 01:39:30",325940,6.95,58.01,5.515,1.031,6.059,100.4264,0.388,1.486,67.38,0,109.5,13.59,1.14,20.0
"2010-11-11 01:40:00",325941,6.552,55.39,6.151,1.18,5.031,100.423,0.379,1.525,67.65,0,109.5,13.59,1.13,17.4
"2010-11-11 01:40:30",325942,7.264,56.79,4.633,0.847,6.034,100.4213,0.375,1.481,68.04,0,109.5,13.59,1.13,18.8
"2010-11-11 01:41:00",325943,6.922,55.25,4.99,1.092,5.377,100.4131,0.354,1.501,68.72,0,109.5,13.59,1.11,17.2
"2010-11-11 01:41:30",325944,7.134,57.43,4.783,0.912,5.749,100.4077,0.34,1.506,68.55,0,109.5,13.59,1.09,19.4
"2010-11-11 01:42:00",325945,7.02,57.62,5.167,0.972,6.06,100.4077,0.34,1.474,67.63,0,109.5,13.59,1.09,19.6
"2010-11-11 01:42:30",325946,6.846,56.91,5.545,1.032,5.723,100.4077,0.34,1.455,67.18,0,109.5,13.59,1.09,18.9
"2010-11-11 01:43:00",325947,5.882,52.95,5.937,1.193,4.5,100.4077,0.34,1.441,66.86,0,109.5,13.59,1.09,15.0
"2010-11-11 01:43:30",325948,6.77,56.14,5.749,1.015,5.624,100.4077,0.34,1.466,66.59,0,109.6,13.59,1.09,18.1
"2010-11-11 01:44:00",325949,6.762,55.54,5.842,1.041,5.27,100.4077,0.34,1.478,66.3,0,109.5,13.59,1.09,17.5
"2010-11-11 01:44:30",325950,7.016,55.95,4.865,0.913,5.987,100.4097,0.345,1.494,66.36,0,109.5,13.59,1.10,18.0
"2010-11-11 01:45:00",325951,6.592,53.93,5.965,1.156,5.196,100.4092,0.344,1.458,66.53,0,109.5,13.59,1.10,15.9
"2010-11-11 01:45:30",325952,6.661,54.26,5.669,1.084,5.648,100.4126,0.352,1.48,66.54,0,109.6,13.59,1.11,16.3
"2010-11-11 01:46:00",325953,6.438,53.2,5.888,1.131,5.366,100.4123,0.352,1.473,66.73,0,109.5,13.59,1.10,15.2
"2010-11-11 01:46:30",325954,6.426,54.68,5.401,1.137,5.598,100.4134,0.355,1.442,67.01,0,109.5,13.59,1.11,16.7
"2010-11-11 01:47:00",325955,6.457,56.62,4.969,1.113,5.462,100.4126,0.352,1.49,67.1,0,109.6,13.59,1.11,18.6
"2010-11-11 01:47:30",325956,6.635,58.32,5.226,0.975,6.087,100.4114,0.349,1.548,67.01,0,109.5,13.59,1.10,20.3
"2010-11-11 01:48:00",325957,6.436,56.25,5.582,1.063,5.775,100.4148,0.358,1.477,67.28,0,109.5,13.59,1.11,18.2
"2010-11-11 01:48:30",325958,6.478,54.81,5.551,1.076,5.708,100.41,0.346,1.473,67.67,0,109.5,13.59,1.10,16.8
"2010-11-11 01:49:00",325959,6.438,52.84,5.393,1.097,5.504,100.4077,0.34,1.468,68.11,0,109.5,13.59,1.09,14.8